EW7772 Weather Reports


time (UTC)temp
F
wind
direction
speed
knots
gust
knots
rain 1hr
in
rain 24hr
in
rain mn
in
humidity
%
barometer
mb
20260904183036 79 323 0.0 0.0 0.00 0.00 0.00 52 1013.6
20260904181536 81 323 0.0 0.0 0.00 0.00 0.00 49 1013.4
20260904180037 82 323 0.0 1.7 0.00 0.00 0.00 48 1013.2
20260904174535 83 331 0.0 1.7 0.00 0.00 0.00 46 1013.0
20260904173034 83 283 0.0 0.9 0.00 0.00 0.00 45 1013.0
20260904171604 84 298 0.0 2.6 0.00 0.00 0.00 44 1013.0
20260904170033 85 253 0.0 2.6 0.00 0.00 0.00 42 1013.0
20260904164534 85 251 0.0 5.2 0.00 0.00 0.00 40 1012.9
20260904163047 86 305 0.0 5.2 0.00 0.00 0.00 39 1012.9
20260904161533 87 273 0.0 4.3 0.00 0.00 0.00 38 1013.0
20260904160032 87 274 0.0 5.2 0.00 0.00 0.00 37 1012.9
20260904154530 88 261 0.0 8.7 0.00 0.00 0.00 37 1012.8
20260904153047 89 360 0.0 5.2 0.00 0.00 0.00 37 1012.9
20260904151537 89 311 1.7 8.7 0.00 0.00 0.00 36 1013.0
20260904150031 89 260 1.7 7.8 0.00 0.00 0.00 36 1013.1
20260904144526 89 277 1.7 5.2 0.00 0.00 0.00 36 1013.3
20260904143025 89 245 1.7 6.1 0.00 0.00 0.00 36 1013.4
20260904141524 89 230 0.9 7.0 0.00 0.00 0.00 36 1013.7
20260904140021 89 306 0.0 6.1 0.00 0.00 0.00 36 1013.7
20260904134523 89 326 1.7 7.8 0.00 0.00 0.00 35 1013.8
20260904133018 88 13 0.9 4.3 0.00 0.00 0.00 35 1013.9
20260904131514 87 269 1.7 7.8 0.00 0.00 0.00 37 1014.2
20260904130012 87 293 2.6 7.0 0.00 0.00 0.00 39 1014.6
20260904124511 87 311 0.9 6.1 0.00 0.00 0.00 39 1014.8
20260904123008 87 298 0.9 4.3 0.00 0.00 0.00 40 1015.1
20260904121507 86 316 0.9 5.2 0.00 0.00 0.00 41 1015.1
20260904120004 86 269 0.9 5.2 0.00 0.00 0.00 42 1015.4
20260904114501 85 307 0.0 6.1 0.00 0.00 0.00 45 1015.4
20260904113059 84 295 0.9 7.0 0.00 0.00 0.00 45 1015.7
20260904111555 83 232 0.0 6.1 0.00 0.00 0.00 47 1016.0
20260904110052 83 55 0.9 6.1 0.00 0.00 0.00 47 1016.3
20260904104552 82 205 0.9 6.1 0.00 0.00 0.00 48 1016.6
20260904103048 82 290 0.0 5.2 0.00 0.00 0.00 49 1016.8
20260904101544 81 260 0.0 5.2 0.00 0.00 0.00 51 1017.0
20260904100040 80 315 1.7 6.1 0.00 0.00 0.00 51 1017.2
20260904094536 79 225 0.0 2.6 0.00 0.00 0.00 56 1017.5
20260904093033 78 259 0.0 3.5 0.00 0.00 0.00 57 1017.8
20260904091529 77 259 0.9 5.2 0.00 0.00 0.00 59 1018.1
20260904090026 76 315 0.0 1.7 0.00 0.00 0.00 60 1018.3
20260904084523 74 301 0.0 2.6 0.00 0.00 0.00 62 1018.5
20260904083018 73 270 0.0 2.6 0.00 0.00 0.00 64 1018.5
20260904081512 70 291 0.0 0.9 0.00 0.00 0.00 67 1018.8
20260904080008 69 291 0.0 0.0 0.00 0.00 0.00 71 1018.9
20260904074504 67 291 0.0 0.0 0.00 0.00 0.00 71 1019.0
20260904073002 66 291 0.0 0.0 0.00 0.00 0.00 73 1019.1
20260904071602 65 291 0.0 0.0 0.00 0.00 0.00 75 1019.2
20260904070100 63 291 0.0 0.0 0.00 0.00 0.00 78 1019.3
20260904064554 62 291 0.0 0.0 0.00 0.00 0.00 80 1019.5
20260904063112 61 291 0.0 0.0 0.00 0.00 0.00 81 1019.5
20260904061553 61 291 0.0 0.0 0.00 0.00 0.00 82 1019.5
20260904060054 60 291 0.0 0.0 0.00 0.00 0.00 83 1019.6
20260904054554 60 309 0.0 0.0 0.00 0.00 0.00 84 1019.6
20260904053100 59 309 0.0 0.0 0.00 0.00 0.00 85 1019.5
20260904051552 59 309 0.0 0.0 0.00 0.00 0.00 84 1019.5
20260904050052 59 309 0.0 0.0 0.00 0.00 0.00 82 1019.5
20260904044549 60 309 0.0 0.0 0.00 0.00 0.00 82 1019.5
20260904043056 60 309 0.0 0.0 0.00 0.00 0.00 81 1019.6
20260904041548 61 309 0.0 0.0 0.00 0.00 0.00 80 1019.7
20260904040046 61 309 0.0 0.0 0.00 0.00 0.00 80 1019.9
20260904034545 61 309 0.0 0.0 0.00 0.00 0.00 81 1020.1
20260904033043 60 309 0.0 0.9 0.00 0.00 0.00 82 1020.1
20260904031543 60 309 0.0 0.0 0.00 0.00 0.00 83 1020.4
20260904030053 60 309 0.0 0.0 0.00 0.00 0.00 83 1020.6
20260904024539 59 309 0.0 0.0 0.00 0.00 0.00 85 1020.7
20260904023039 58 309 0.0 0.0 0.00 0.00 0.00 84 1020.9
20260904021550 58 309 0.0 0.0 0.00 0.00 0.00 84 1020.7
20260904020036 59 309 0.0 0.0 0.00 0.00 0.00 83 1020.7
20260904014537 59 309 0.0 0.0 0.00 0.00 0.00 82 1020.7
20260904013034 60 309 0.0 0.0 0.00 0.00 0.00 82 1020.7
20260904011531 60 309 0.0 0.0 0.00 0.00 0.00 80 1020.7
20260904010029 61 309 0.0 0.0 0.00 0.00 0.00 79 1020.8
20260904004529 61 309 0.0 0.0 0.00 0.00 0.00 78 1020.9
20260904003025 61 309 0.0 0.0 0.00 0.00 0.00 79 1021.0
20260904001523 61 309 0.0 0.0 0.00 0.00 0.00 78 1021.2
20260904000021 62 309 0.0 0.0 0.00 0.00 0.00 77 1021.2
20260903234520 62 309 0.0 0.0 0.00 0.00 0.00 77 1021.2
20260903233032 62 309 0.0 0.0 0.00 0.00 0.00 77 1021.2
20260903231531 62 309 0.0 0.0 0.00 0.00 0.00 77 1021.4
20260903230017 62 309 0.0 0.0 0.00 0.00 0.00 76 1021.3
20260903224517 62 309 0.0 0.0 0.00 0.00 0.00 76 1021.3
20260903223015 62 309 0.0 0.0 0.00 0.00 0.00 77 1021.2
20260903221514 63 309 0.0 0.0 0.00 0.00 0.00 76 1021.3
20260903220010 64 309 0.0 0.0 0.00 0.00 0.00 74 1021.3
20260903214510 64 309 0.0 0.0 0.00 0.00 0.00 74 1021.3
20260903213009 64 309 0.0 0.0 0.00 0.00 0.00 74 1021.2
20260903211509 65 309 0.0 0.0 0.00 0.00 0.00 73 1021.5
20260903210009 65 309 0.0 0.0 0.00 0.00 0.00 72 1021.2
20260903204508 66 309 0.0 0.0 0.00 0.00 0.00 71 1021.2
20260903203008 66 309 0.0 0.0 0.00 0.00 0.00 69 1021.2
20260903201509 67 309 0.0 0.0 0.00 0.00 0.00 69 1021.0
20260903200007 67 309 0.0 0.0 0.00 0.00 0.00 68 1021.3
20260903194506 67 309 0.0 0.0 0.00 0.00 0.00 67 1021.4
20260903193011 67 309 0.0 0.0 0.00 0.00 0.00 66 1021.4
20260903191517 67 309 0.0 0.0 0.00 0.00 0.00 66 1021.1
20260903190005 68 309 0.0 0.0 0.00 0.00 0.00 64 1021.1
20260903184505 69 309 0.0 0.0 0.00 0.00 0.00 62 1020.8